This is the latest recevied weather packets stored in our database for station/object K4HOG. If no packets are shown the sender has not sent any weather packets the latest 10 day(s).
| Time | Temp. | Humidity | Pressure | Rain* | Wind** | Luminosity | Snow |
|---|---|---|---|---|---|---|---|
| 1777822988 | 23.33° C | 60% | 1019 hPa | 0 mm | - | 831 W/m² | - |
| 1777822686 | 22.78° C | 64% | 1018.6 hPa | 0 mm | - | 852 W/m² | - |
| 1777822384 | 21.67° C | 67% | 1018.7 hPa | 0 mm | - | 818 W/m² | - |
| 1777822081 | 22.22° C | 67% | 1018.8 hPa | 0 mm | - | 184 W/m² | - |
| 1777821779 | 22.22° C | 65% | 1018.8 hPa | 0 mm | - | 752 W/m² | - |
| 1777821475 | 21.67° C | 65% | 1018.6 hPa | 0 mm | - | 722 W/m² | - |
| 1777821173 | 21.67° C | 66% | 1018.5 hPa | 0 mm | - | 577 W/m² | - |
| 1777820870 | 21.11° C | 66% | 1018.4 hPa | 0 mm | - | 82 W/m² | - |
| 1777820565 | 21.11° C | 67% | 1018.4 hPa | 0 mm | - | 266 W/m² | - |
| 1777820262 | 21.11° C | 69% | 1018.5 hPa | 0 mm | - | 113 W/m² | - |
| 1777819960 | 21.11° C | 67% | 1018.4 hPa | 0 mm | - | 119 W/m² | - |
| 1777819657 | 21.11° C | 68% | 1018.3 hPa | 0 mm | - | 317 W/m² | - |
| 1777819355 | 21.11° C | 70% | 1018.4 hPa | 0 mm | - | 133 W/m² | - |
| 1777819051 | 20.56° C | 70% | 1018.2 hPa | 0 mm | - | 221 W/m² | - |
| 1777818749 | 20.56° C | 69% | 1018.2 hPa | 0 mm | - | 145 W/m² | - |
| 1777818445 | 20.56° C | 71% | 1018.3 hPa | 0 mm | - | 221 W/m² | - |
| 1777818142 | 20.56° C | 72% | 1018.2 hPa | 0 mm | - | 113 W/m² | - |
| 1777817839 | 20° C | 71% | 1018.4 hPa | 0 mm | - | 63 W/m² | - |
| 1777817536 | 20° C | 72% | 1018 hPa | 0 mm | - | 62 W/m² | - |
| 1777817233 | 20° C | 71% | 1018.3 hPa | 0 mm | - | 79 W/m² | - |
| 1777816930 | 20° C | 73% | 1018.4 hPa | 0 mm | - | 106 W/m² | - |
| 1777816627 | 20° C | 74% | 1018.3 hPa | 0 mm | - | 140 W/m² | - |
| 1777816323 | 20° C | 76% | 1018.1 hPa | 0 mm | - | 78 W/m² | - |
| 1777816021 | 19.44° C | 78% | 1018.2 hPa | 0 mm | - | 176 W/m² | - |
| 1777815719 | 18.89° C | 79% | 1018.1 hPa | 0 mm | - | 324 W/m² | - |
* Rain latest hour (hover to see other rain measurements)
** Current wind speed in m/s (hover to see current wind gust speed)